SB KEPS @ AMSAT $ORB10224.O Orbital Elements 10224.OSCAR
HR AMSAT ORBITAL ELEMENTS FOR OSCAR SATELLITES FROM WA5QGD FORT WORTH,TX August 12, 2010 Send Subscribe/unsubscribe to KEPS at http://www.amsat.org/mailman/listinfo/keps BID: ORB10224.O TO ALL RADIO AMATEURS BT
Satellite: AO-07 Catalog number: 07530 Epoch time: 10223.58821019 Element set: 850 Inclination: 101.4008 deg RA of node: 237.3044 deg Eccentricity: 0.0011772 Arg of perigee: 164.4122 deg Mean anomaly: 195.7313 deg Mean motion: 12.53579134 rev/day Decay rate: -2.7e-07 rev/day^2 Epoch rev: 63539 Checksum: 268
Satellite: FO-29 Catalog number: 24278 Epoch time: 10223.93777215 Element set: 0398 Inclination: 098.5155 deg RA of node: 045.3606 deg Eccentricity: 0.0350822 Arg of perigee: 339.3990 deg Mean anomaly: 019.3298 deg Mean motion: 13.52951543 rev/day Decay rate: -8.0e-08 rev/day^2 Epoch rev: 69064 Checksum: 332
Satellite: SO-33 Catalog number: 25509 Epoch time: 10223.26622241 Element set: 0772 Inclination: 031.4303 deg RA of node: 197.0433 deg Eccentricity: 0.0353433 Arg of perigee: 051.5340 deg Mean anomaly: 311.6447 deg Mean motion: 14.28323058 rev/day Decay rate: 1.94e-06 rev/day^2 Epoch rev: 61593 Checksum: 266
Satellite: RS-22 Catalog number: 27939 Epoch time: 10224.46358057 Element set: 445 Inclination: 097.8847 deg RA of node: 087.5405 deg Eccentricity: 0.0012554 Arg of perigee: 239.7486 deg Mean anomaly: 120.2473 deg Mean motion: 14.63441200 rev/day Decay rate: 6.4e-07 rev/day^2 Epoch rev: 36718 Checksum: 312
Satellite: VO-52 Catalog number: 28650 Epoch time: 10223.70905938 Element set: 0573 Inclination: 097.6883 deg RA of node: 274.9657 deg Eccentricity: 0.0028357 Arg of perigee: 094.5213 deg Mean anomaly: 265.9269 deg Mean motion: 14.81787425 rev/day Decay rate: 4.39e-06 rev/day^2 Epoch rev: 28491 Checksum: 358
Satellite: SO-67 Catalog number: 35870 Epoch time: 10224.43930909 Element set: 2 Inclination: 097.3278 deg RA of node: 272.0751 deg Eccentricity: 0.0001363 Arg of perigee: 262.6943 deg Mean anomaly: 227.2455 deg Mean motion: 15.20995255 rev/day Decay rate: 7.25e-06 rev/day^2 Epoch rev: 5000 Checksum: 288
Satellite: HO-68 Catalog number: 36122 Epoch time: 10224.34213893 Element set: 571 Inclination: 100.4649 deg RA of node: 284.1923 deg Eccentricity: 0.0007265 Arg of perigee: 207.0395 deg Mean anomaly: 153.0340 deg Mean motion: 13.16281531 rev/day Decay rate: -4.5e-07 rev/day^2 Epoch rev: 3160 Checksum: 260
/EX SB KEPS @ AMSAT $ORB10224.D Orbital Elements 10224.MICROS
HR AMSAT ORBITAL ELEMENTS FOR THE MICROSATS FROM WA5QGD FORT WORTH,TX August 12, 2010 Send Subscribe/unsubscribe to KEPS at http://www.amsat.org/mailman/listinfo/keps BID: ORB10224.D TO ALL RADIO AMATEURS BT
Satellite: UO-11 Catalog number: 14781 Epoch time: 10223.67110601 Element set: 0312 Inclination: 098.0520 deg RA of node: 275.5685 deg Eccentricity: 0.0010084 Arg of perigee: 062.5727 deg Mean anomaly: 297.6484 deg Mean motion: 14.79824586 rev/day Decay rate: 2.53e-06 rev/day^2 Epoch rev: 42001 Checksum: 284
Satellite: AO-16 Catalog number: 20439 Epoch time: 10223.81272989 Element set: 967 Inclination: 098.3363 deg RA of node: 179.5421 deg Eccentricity: 0.0011282 Arg of perigee: 006.7042 deg Mean anomaly: 353.4291 deg Mean motion: 14.31869828 rev/day Decay rate: 1.7e-07 rev/day^2 Epoch rev: 7334 Checksum: 308
Satellite: LO-19 Catalog number: 20442 Epoch time: 10223.45218803 Element set: 0878 Inclination: 098.2969 deg RA of node: 184.7744 deg Eccentricity: 0.0011915 Arg of perigee: 002.2717 deg Mean anomaly: 357.8506 deg Mean motion: 14.32100064 rev/day Decay rate: -1.6e-07 rev/day^2 Epoch rev: 07346 Checksum: 292
Satellite: AO-27 Catalog number: 22825 Epoch time: 10223.80655235 Element set: 0600 Inclination: 098.4882 deg RA of node: 170.3270 deg Eccentricity: 0.0009302 Arg of perigee: 103.2466 deg Mean anomaly: 256.9764 deg Mean motion: 14.29304788 rev/day Decay rate: 9.9e-07 rev/day^2 Epoch rev: 87999 Checksum: 327
Satellite: IO-26 Catalog number: 22826 Epoch time: 10223.79205685 Element set: 0338 Inclination: 098.4821 deg RA of node: 170.8934 deg Eccentricity: 0.0009884 Arg of perigee: 099.2718 deg Mean anomaly: 260.9583 deg Mean motion: 14.29561193 rev/day Decay rate: 1.0e-07 rev/day^2 Epoch rev: 88010 Checksum: 324
Satellite: GO-32 Catalog number: 25397 Epoch time: 10223.50151346 Element set: 0258 Inclination: 098.3136 deg RA of node: 227.9084 deg Eccentricity: 0.0002278 Arg of perigee: 092.0346 deg Mean anomaly: 268.1095 deg Mean motion: 14.23182155 rev/day Decay rate: -1.19e-06 rev/day^2 Epoch rev: 62791 Checksum: 294
Satellite: NO-44 Catalog number: 26931 Epoch time: 10224.59210436 Element set: 531 Inclination: 067.0506 deg RA of node: 058.6511 deg Eccentricity: 0.0005091 Arg of perigee: 264.5161 deg Mean anomaly: 095.5355 deg Mean motion: 14.29606588 rev/day Decay rate: -5.7e-07 rev/day^2 Epoch rev: 46281 Checksum: 293
Satellite: SO-50 Catalog number: 27607 Epoch time: 10223.46295853 Element set: 0243 Inclination: 064.5561 deg RA of node: 188.6201 deg Eccentricity: 0.0037673 Arg of perigee: 051.7666 deg Mean anomaly: 308.6817 deg Mean motion: 14.71562424 rev/day Decay rate: 3.2e-07 rev/day^2 Epoch rev: 41051 Checksum: 292
Satellite: CO-55 Catalog number: 27844 Epoch time: 10223.52090517 Element set: 0911 Inclination: 098.7104 deg RA of node: 231.7025 deg Eccentricity: 0.0010445 Arg of perigee: 016.8003 deg Mean anomaly: 343.3515 deg Mean motion: 14.20722529 rev/day Decay rate: 6.0e-07 rev/day^2 Epoch rev: 36894 Checksum: 269
Satellite: CO-57 Catalog number: 27848 Epoch time: 10223.48815599 Element set: 858 Inclination: 098.7153 deg RA of node: 230.7740 deg Eccentricity: 0.0010394 Arg of perigee: 021.0021 deg Mean anomaly: 339.1605 deg Mean motion: 14.20514174 rev/day Decay rate: 5.3e-07 rev/day^2 Epoch rev: 36889 Checksum: 307
Satellite: AO-51 Catalog number: 28375 Epoch time: 10223.77945460 Element set: 746 Inclination: 098.0655 deg RA of node: 214.1194 deg Eccentricity: 0.0083533 Arg of perigee: 289.4717 deg Mean anomaly: 069.7464 deg Mean motion: 14.40693877 rev/day Decay rate: 1.7e-07 rev/day^2 Epoch rev: 32151 Checksum: 329
Satellite: GENESAT1 Catalog number: 29655 Epoch time: 10216.61700559 Element set: 226 Inclination: 040.0059 deg RA of node: 067.3006 deg Eccentricity: 0.0005079 Arg of perigee: 297.8744 deg Mean anomaly: 064.7087 deg Mean motion: 16.44862838 rev/day Decay rate: 1.0637092e-01 rev/day^2 Epoch rev: 20777 Checksum: 320
Satellite: CP3 Catalog number: 31129 Epoch time: 10224.09242018 Element set: 648 Inclination: 097.9355 deg RA of node: 260.6613 deg Eccentricity: 0.0103651 Arg of perigee: 061.1049 deg Mean anomaly: 300.0530 deg Mean motion: 14.52292162 rev/day Decay rate: 7.41e-06 rev/day^2 Epoch rev: 17597 Checksum: 266
Satellite: CO-65 Catalog number: 32785 Epoch time: 10223.33845754 Element set: 0756 Inclination: 097.8930 deg RA of node: 287.4923 deg Eccentricity: 0.0015950 Arg of perigee: 103.1396 deg Mean anomaly: 257.1639 deg Mean motion: 14.81693634 rev/day Decay rate: 2.17e-06 rev/day^2 Epoch rev: 12365 Checksum: 330
Satellite: KKS-1 Catalog number: 33493 Epoch time: 10224.46534200 Element set: 750 Inclination: 098.0908 deg RA of node: 344.4549 deg Eccentricity: 0.0019196 Arg of perigee: 322.7567 deg Mean anomaly: 037.2303 deg Mean motion: 14.81060159 rev/day Decay rate: 4.75e-06 rev/day^2 Epoch rev: 8381 Checksum: 292
Satellite: SOHLA-1 Catalog number: 33496 Epoch time: 10224.47225596 Element set: 176 Inclination: 098.0627 deg RA of node: 332.8289 deg Eccentricity: 0.0007260 Arg of perigee: 032.1026 deg Mean anomaly: 328.0616 deg Mean motion: 14.69507964 rev/day Decay rate: 8.0e-08 rev/day^2 Epoch rev: 8314 Checksum: 298
Satellite: TISAT-1 Catalog number: 36799 Epoch time: 10223.69075515 Element set: 0049 Inclination: 098.1456 deg RA of node: 283.2798 deg Eccentricity: 0.0014985 Arg of perigee: 192.0971 deg Mean anomaly: 167.9867 deg Mean motion: 14.80139423 rev/day Decay rate: 4.18e-06 rev/day^2 Epoch rev: 00452 Checksum: 335
Satellite: STUDSAT Catalog number: 36801 Epoch time: 10223.70267754 Element set: 48 Inclination: 098.1457 deg RA of node: 283.2597 deg Eccentricity: 0.0013507 Arg of perigee: 179.8305 deg Mean anomaly: 180.2907 deg Mean motion: 14.79578102 rev/day Decay rate: 9.02e-06 rev/day^2 Epoch rev: 452 Checksum: 297
/EX SB KEPS @ AMSAT $ORB10224.W Orbital Elements 10224.WEATHER
HR AMSAT ORBITAL ELEMENTS FOR WEATHER SATELLITES FROM WA5QGD FORT WORTH,TX August 12, 2010 Send Subscribe/unsubscribe to KEPS at http://www.amsat.org/mailman/listinfo/keps BID: ORB10224.W TO ALL RADIO AMATEURS BT
Satellite: NOAA-10 Catalog number: 16969 Epoch time: 10223.66923751 Element set: 0165 Inclination: 098.6542 deg RA of node: 252.1092 deg Eccentricity: 0.0013102 Arg of perigee: 051.8722 deg Mean anomaly: 308.3637 deg Mean motion: 14.27424066 rev/day Decay rate: 1.12e-06 rev/day^2 Epoch rev: 24349 Checksum: 280
Satellite: NOAA-11 Catalog number: 19531 Epoch time: 10223.75113089 Element set: 0177 Inclination: 098.7697 deg RA of node: 311.8296 deg Eccentricity: 0.0011664 Arg of perigee: 354.1820 deg Mean anomaly: 005.9223 deg Mean motion: 14.14931045 rev/day Decay rate: -2.14e-06 rev/day^2 Epoch rev: 12899 Checksum: 295
Satellite: NOAA-12 Catalog number: 21263 Epoch time: 10223.72582260 Element set: 0667 Inclination: 098.7647 deg RA of node: 236.8787 deg Eccentricity: 0.0012660 Arg of perigee: 010.1394 deg Mean anomaly: 350.0026 deg Mean motion: 14.25647811 rev/day Decay rate: 1.6e-07 rev/day^2 Epoch rev: 00031 Checksum: 268
Satellite: MET-3/5 Catalog number: 21655 Epoch time: 10224.54908711 Element set: 886 Inclination: 082.5559 deg RA of node: 268.8162 deg Eccentricity: 0.0012851 Arg of perigee: 202.5925 deg Mean anomaly: 157.4670 deg Mean motion: 13.17025417 rev/day Decay rate: 5.1e-07 rev/day^2 Epoch rev: 91309 Checksum: 302
